SCP
-0 -0 -0 -0 -0 -0 -0 -0 -0 -0 -0 -0 -0 -0 -0 -0 -0 -0 -0 -0 -0 -0 -0 -0 -0 -0 -0
-0 -0 -0 -0 -0 -0 -0 -0 -0 -0 -0 -0 -0 -0 -0 -0 -0 -0 -0 -0 -0 -0 -0 -0 -0 -0 -0
-0 -0 -0 -0 -0 -0 -0 -0 -0 -0 -0 -0 -0 -0 -0 -0 -0 -0 -0 -0 -0 -0 -0 -0 -0 0 0
0 -0 -0 -0 -0 -0 -0 -0 -0 -0 -0 -0 -0 0 -0 -0 -0 -0 -0 -0 0 0 0 0 0 0 0
-0 0 0 0 0 0 -0 -0 0 0 0 0 0 0 0 0 0 0 0 0 0 0 0 0 0 0 0
0 0 0 0 0 0 0 0 0 0 0 0 0 0 0 0 0 0 0 0 0 0 0 0 0 0 0
0 0 0 0 0 0 0 0 0 0 0 0 0 0 0 0 0 0 0 0 0 0 0 0 0 0 0
0 0 0 0 0 0 0 0 0 0 0 0 0 0 0 0 0 0 0 0 0 0 0 0 0 0 0
0 0 0 0 0 0 0 0 0 0 0 0 0 0 0 0 0 0 0 0 0 0 0 0 0 0 0
0 0 0 0 0 0 0 0 0 0 0 0 0 0 0 0 0 0 0 0 0 0 0 0 0 0 0
0 0 0 0 0 0 0 0 0 0 0 0 0 0 0 0 0 0 0 0 0 0 0 0 0 0 0
0 0 0 0 0 0 0 0 0 0 0 0 0 0 0 0 0 0 0 0 0 0 0 0 0 0 0
0 0 0 0 0 0 0 0 0 0 0 0 0 0 0 0 0 0 0 0 0 0 0 0 0 0 0
0 0 0 0 0 0 0 0 0 0 0 0 0 0 0 0 0 0 0 0 0 0 0 0 0 0 0
0 0 0 0 0 0 0 0 0 0 0 0 0 0 0 0 0 0 0 0 0 0 0 0 0 0 0
0 0 0 0 0 0 0 0 0 0 0 0 0 0 0 0 0 0 0 0 0 0 0 0 0 0 0
Wind_Speed_500mb
27 24 20 17 15 15 14 13 13 16 17 21 23 23 22 22 22 22 24 26 28 30 31 31 36 38 35
31 27 23 20 19 17 14 12 11 13 14 19 23 24 23 23 23 23 24 25 27 29 31 32 29 33 38
31 31 27 23 21 21 18 15 13 13 15 16 18 18 17 18 22 24 26 27 28 29 27 24 26 43 47
34 33 31 29 26 24 24 21 18 17 17 17 17 16 14 12 14 18 21 24 25 27 25 27 25 35 43
40 36 34 33 31 29 28 26 27 25 15 19 19 19 14 11 6 9 14 16 18 19 19 23 29 35 44
48 43 37 37 35 35 36 31 34 33 26 24 23 21 18 16 8 5 8 11 14 16 16 19 26 30 41
56 51 47 39 41 39 37 38 40 35 35 30 27 25 25 22 20 16 17 14 16 17 18 20 28 31 32
51 53 55 54 44 41 44 41 44 40 42 37 36 30 32 30 29 27 24 14 20 19 17 24 29 30 31
54 49 46 51 57 52 46 47 45 47 44 42 41 41 39 33 39 36 27 13 18 20 20 29 31 30 32
62 58 53 51 47 55 52 56 56 58 54 48 50 48 43 41 42 46 35 25 22 25 27 34 34 34 33
64 64 62 59 58 56 57 56 63 63 59 56 55 56 52 53 43 47 44 33 27 32 32 36 37 36 34
69 69 68 68 67 68 60 64 63 73 70 67 63 59 58 63 52 54 53 40 32 32 39 41 41 40 37
76 76 76 75 72 75 74 72 62 74 78 75 73 70 64 63 57 54 58 49 44 42 46 43 39 40 40
78 76 76 73 73 75 73 80 76 75 77 77 74 73 71 72 69 68 67 63 57 50 53 45 30 37 43
78 77 75 71 75 79 77 76 79 79 76 76 77 75 76 76 88 72 75 77 63 57 63 45 22 21 42
79 81 82 81 81 78 75 74 77 80 78 77 77 78 85 78 78 83 83 80 70 63 69 70 45 32 28
Wind_Direction_500mb
184 182 182 173 169 163 153 133 115 106 99 93 94 99 104 106 105 105 105 106 107 107 107 106 109 105 101
191 188 190 190 190 186 174 165 142 124 113 101 97 94 95 99 103 106 108 110 111 112 113 114 108 108 101
202 197 197 199 196 193 195 190 177 158 147 137 116 104 94 93 99 105 109 110 111 110 111 102 101 103 103
196 210 203 205 207 209 212 205 200 185 174 165 148 131 119 97 102 108 112 117 118 118 118 109 103 123 117
209 213 205 214 211 213 219 210 189 197 212 210 194 176 164 135 118 136 139 141 142 139 135 123 117 126 122
215 209 209 216 214 216 219 217 208 211 219 227 224 210 212 201 204 238 207 174 164 154 147 140 137 130 132
217 215 207 209 224 218 221 223 219 224 216 230 227 231 228 219 204 219 212 219 194 175 165 159 156 146 143
222 219 217 219 215 225 226 228 227 233 230 231 233 234 233 229 220 206 202 216 220 192 183 170 165 159 151
223 222 222 228 225 225 230 229 231 237 231 234 233 232 228 235 230 220 213 221 251 218 197 178 173 170 166
229 229 229 223 226 224 229 228 230 234 235 234 233 235 236 235 235 242 212 215 236 222 200 186 182 179 176
232 233 234 233 230 227 224 231 228 230 235 236 235 237 236 236 243 224 215 208 240 219 212 197 189 186 183
234 234 235 235 235 234 225 226 235 225 232 238 238 240 239 228 237 231 210 210 229 222 216 202 196 193 193
233 233 235 236 237 240 233 232 230 230 230 235 237 239 239 237 239 229 214 213 212 225 215 204 200 201 203
236 238 238 240 240 243 241 239 239 237 233 231 232 234 238 236 233 237 220 216 212 223 220 207 203 213 215
237 238 239 239 240 242 245 241 238 236 233 231 229 233 240 236 236 233 234 222 222 220 220 210 191 217 218
238 237 241 243 246 250 249 245 239 234 232 227 226 231 239 233 236 240 244 222 223 234 218 212 210 201 193
Wind_Speed_850mb
27 24 20 17 15 15 14 13 13 16 17 21 23 23 22 22 22 22 24 26 28 30 31 31 36 38 35
31 27 23 20 19 17 14 12 11 13 14 19 23 24 23 23 23 23 24 25 27 29 31 32 29 33 38
31 31 27 23 21 21 18 15 13 13 15 16 18 18 17 18 22 24 26 27 28 29 27 24 26 43 47
34 33 31 29 26 24 24 21 18 17 17 17 17 16 14 12 14 18 21 24 25 27 25 27 25 35 43
40 36 34 33 31 29 28 26 27 25 15 19 19 19 14 11 6 9 14 16 18 19 19 23 29 35 44
48 43 37 37 35 35 36 31 34 33 26 24 23 21 18 16 8 5 8 11 14 16 16 19 26 30 41
56 51 47 39 41 39 37 38 40 35 35 30 27 25 25 22 20 16 17 14 16 17 18 20 28 31 32
51 53 55 54 44 41 44 41 44 40 42 37 36 30 32 30 29 27 24 14 20 19 17 24 29 30 31
54 49 46 51 57 52 46 47 45 47 44 42 41 41 39 33 39 36 27 13 18 20 20 29 31 30 32
62 58 53 51 47 55 52 56 56 58 54 48 50 48 43 41 42 46 35 25 22 25 27 34 34 34 33
64 64 62 59 58 56 57 56 63 63 59 56 55 56 52 53 43 47 44 33 27 32 32 36 37 36 34
69 69 68 68 67 68 60 64 63 73 70 67 63 59 58 63 52 54 53 40 32 32 39 41 41 40 37
76 76 76 75 72 75 74 72 62 74 78 75 73 70 64 63 57 54 58 49 44 42 46 43 39 40 40
78 76 76 73 73 75 73 80 76 75 77 77 74 73 71 72 69 68 67 63 57 50 53 45 30 37 43
78 77 75 71 75 79 77 76 79 79 76 76 77 75 76 76 88 72 75 77 63 57 63 45 22 21 42
79 81 82 81 81 78 75 74 77 80 78 77 77 78 85 78 78 83 83 80 70 63 69 70 45 32 28
Wind_Direction_850mb
184 182 182 173 169 163 153 133 115 106 99 93 94 99 104 106 105 105 105 106 107 107 107 106 109 105 101
191 188 190 190 190 186 174 165 142 124 113 101 97 94 95 99 103 106 108 110 111 112 113 114 108 108 101
202 197 197 199 196 193 195 190 177 158 147 137 116 104 94 93 99 105 109 110 111 110 111 102 101 103 103
196 210 203 205 207 209 212 205 200 185 174 165 148 131 119 97 102 108 112 117 118 118 118 109 103 123 117
209 213 205 214 211 213 219 210 189 197 212 210 194 176 164 135 118 136 139 141 142 139 135 123 117 126 122
215 209 209 216 214 216 219 217 208 211 219 227 224 210 212 201 204 238 207 174 164 154 147 140 137 130 132
217 215 207 209 224 218 221 223 219 224 216 230 227 231 228 219 204 219 212 219 194 175 165 159 156 146 143
222 219 217 219 215 225 226 228 227 233 230 231 233 234 233 229 220 206 202 216 220 192 183 170 165 159 151
223 222 222 228 225 225 230 229 231 237 231 234 233 232 228 235 230 220 213 221 251 218 197 178 173 170 166
229 229 229 223 226 224 229 228 230 234 235 234 233 235 236 235 235 242 212 215 236 222 200 186 182 179 176
232 233 234 233 230 227 224 231 228 230 235 236 235 237 236 236 243 224 215 208 240 219 212 197 189 186 183
234 234 235 235 235 234 225 226 235 225 232 238 238 240 239 228 237 231 210 210 229 222 216 202 196 193 193
233 233 235 236 237 240 233 232 230 230 230 235 237 239 239 237 239 229 214 213 212 225 215 204 200 201 203
236 238 238 240 240 243 241 239 239 237 233 231 232 234 238 236 233 237 220 216 212 223 220 207 203 213 215
237 238 239 239 240 242 245 241 238 236 233 231 229 233 240 236 236 233 234 222 222 220 220 210 191 217 218
238 237 241 243 246 250 249 245 239 234 232 227 226 231 239 233 236 240 244 222 223 234 218 212 210 201 193